Location: Centerville
(32.8776°N, 96.6203°W)
Time: 05:43:02
(UTC+00:00)

ARGOS Delta rocket - Pass Details

Date: 17 June 2021
Orbit: 635 x 837 km, 96.5° (Epoch: 29 July)

Event Time Altitude Azimuth Distance (km) Brightness Sun altitude
Rises 07:55:15 0° 9° (N) 3,389 8.4 -30.0°
Reaches altitude 10° 07:57:37 10° 9° (N) 2,455 7.5 -29.8°
Enters shadow 08:02:37 74° 360° (N) 867 4.2 -29.3°
